| time (UTC) | temp F | wind direction | speed MPH | gust MPH | rain 1hr in | rain 24hr in | rain mn in | humidity % | barometer mb |
| 20260901114517 | 74 | 136 | 1.0 | 4.0 | 0.00 | 0.00 | 0.00 | 93 | 1017.9 |
| 20260901113020 | 73 | 170 | 1.0 | 4.0 | 0.00 | 0.00 | 0.00 | 94 | 1017.9 |
| 20260901111508 | 73 | 351 | 0.0 | 0.0 | 0.00 | 0.00 | 0.00 | 95 | 1017.7 |
| 20260901110012 | 73 | 352 | 0.0 | 0.0 | 0.00 | 0.00 | 0.00 | 95 | 1017.7 |
| 20260901104508 | 72 | 352 | 0.0 | 0.0 | 0.00 | 0.00 | 0.00 | 95 | 1017.5 |
| 20260901103009 | 72 | 352 | 0.0 | 0.0 | 0.00 | 0.00 | 0.00 | 95 | 1017.6 |
| 20260901101523 | 73 | 352 | 0.0 | 0.0 | 0.00 | 0.00 | 0.00 | 95 | 1017.4 |
| 20260901100011 | 73 | 352 | 0.0 | 0.0 | 0.00 | 0.00 | 0.00 | 95 | 1017.3 |
| 20260901094514 | 73 | 346 | 0.0 | 0.0 | 0.00 | 0.00 | 0.00 | 95 | 1017.3 |
| 20260901093014 | 73 | 346 | 0.0 | 0.0 | 0.00 | 0.00 | 0.00 | 95 | 1017.3 |
| 20260901091515 | 73 | 346 | 0.0 | 0.0 | 0.00 | 0.00 | 0.00 | 94 | 1017.4 |
| 20260901090008 | 73 | 330 | 0.0 | 0.0 | 0.00 | 0.00 | 0.00 | 95 | 1017.4 |
| 20260901084513 | 73 | 330 | 0.0 | 0.0 | 0.00 | 0.00 | 0.00 | 95 | 1017.4 |
| 20260901083002 | 73 | 330 | 0.0 | 0.0 | 0.00 | 0.00 | 0.00 | 95 | 1017.6 |
| 20260901081502 | 73 | 330 | 0.0 | 0.0 | 0.00 | 0.00 | 0.00 | 95 | 1017.5 |
| 20260901080003 | 74 | 330 | 0.0 | 0.0 | 0.00 | 0.00 | 0.00 | 95 | 1017.5 |
| 20260901074506 | 73 | 330 | 0.0 | 0.0 | 0.00 | 0.00 | 0.00 | 95 | 1017.7 |
| 20260901073002 | 74 | 330 | 0.0 | 0.0 | 0.00 | 0.00 | 0.00 | 95 | 1017.8 |
| 20260901071503 | 74 | 330 | 0.0 | 0.0 | 0.00 | 0.00 | 0.00 | 94 | 1017.8 |
| 20260901070005 | 74 | 330 | 0.0 | 0.0 | 0.00 | 0.00 | 0.00 | 95 | 1017.9 |
| 20260901064502 | 74 | 330 | 0.0 | 0.0 | 0.00 | 0.00 | 0.00 | 95 | 1018.0 |
| 20260901063003 | 74 | 330 | 0.0 | 0.0 | 0.00 | 0.00 | 0.00 | 95 | 1018.0 |
| 20260901061503 | 74 | 330 | 0.0 | 0.0 | 0.00 | 0.00 | 0.00 | 94 | 1018.2 |
| 20260901060003 | 74 | 330 | 0.0 | 0.0 | 0.00 | 0.00 | 0.00 | 94 | 1018.2 |
| 20260901054507 | 74 | 330 | 0.0 | 0.0 | 0.00 | 0.00 | 0.00 | 94 | 1018.3 |
| 20260901053004 | 75 | 330 | 0.0 | 0.0 | 0.00 | 0.00 | 0.00 | 94 | 1018.5 |
| 20260901051507 | 75 | 330 | 0.0 | 0.0 | 0.00 | 0.00 | 0.00 | 94 | 1018.6 |
| 20260901050004 | 75 | 330 | 0.0 | 0.0 | 0.00 | 0.00 | 0.00 | 93 | 1018.6 |
| 20260901044505 | 75 | 329 | 0.0 | 0.0 | 0.00 | 0.00 | 0.00 | 93 | 1018.8 |
| 20260901043003 | 75 | 330 | 0.0 | 0.0 | 0.00 | 0.00 | 0.00 | 93 | 1018.7 |
| 20260901041509 | 75 | 330 | 0.0 | 0.0 | 0.00 | 0.00 | 0.00 | 92 | 1018.9 |
| 20260901040008 | 76 | 329 | 0.0 | 0.0 | 0.00 | 0.00 | 0.00 | 92 | 1018.9 |
| 20260901034503 | 76 | 330 | 0.0 | 1.0 | 0.00 | 0.00 | 0.00 | 93 | 1018.9 |
| 20260901033006 | 76 | 330 | 0.0 | 0.0 | 0.00 | 0.00 | 0.00 | 93 | 1018.8 |
| 20260901031503 | 76 | 330 | 0.0 | 2.0 | 0.00 | 0.00 | 0.00 | 92 | 1018.9 |
| 20260901030013 | 77 | 315 | 0.0 | 1.0 | 0.00 | 0.00 | 0.00 | 91 | 1018.8 |
| 20260901024516 | 77 | 315 | 0.0 | 1.0 | 0.00 | 0.00 | 0.00 | 90 | 1018.8 |
| 20260901023014 | 78 | 315 | 0.0 | 1.0 | 0.00 | 0.02 | 0.00 | 90 | 1018.7 |
| 20260901021515 | 78 | 315 | 0.0 | 0.0 | 0.00 | 0.02 | 0.00 | 88 | 1018.7 |
| 20260901020016 | 78 | 315 | 0.0 | 0.0 | 0.00 | 0.02 | 0.00 | 87 | 1018.7 |
| 20260901014507 | 79 | 315 | 0.0 | 0.0 | 0.00 | 0.02 | 0.00 | 87 | 1018.7 |
| 20260901013031 | 79 | 315 | 0.0 | 0.0 | 0.00 | 0.02 | 0.00 | 87 | 1018.7 |
| 20260901011510 | 80 | 315 | 0.0 | 2.0 | 0.00 | 0.02 | 0.00 | 88 | 1018.5 |
| 20260901010020 | 80 | 329 | 0.0 | 0.0 | 0.00 | 0.02 | 0.00 | 88 | 1018.5 |
| 20260901004515 | 80 | 329 | 0.0 | 0.0 | 0.00 | 0.02 | 0.00 | 87 | 1018.2 |
| 20260901003009 | 80 | 329 | 0.0 | 0.0 | 0.00 | 0.02 | 0.00 | 87 | 1018.3 |
| 20260901001510 | 81 | 329 | 0.0 | 0.0 | 0.00 | 0.02 | 0.00 | 86 | 1018.3 |
| 20260901000010 | 81 | 329 | 0.0 | 0.0 | 0.00 | 0.02 | 0.00 | 85 | 1018.3 |
| 20260831234517 | 81 | 329 | 0.0 | 0.0 | 0.00 | 0.02 | 0.00 | 83 | 1018.0 |
| 20260831233020 | 82 | 329 | 0.0 | 0.0 | 0.00 | 0.02 | 0.00 | 83 | 1018.3 |
| 20260831231518 | 82 | 329 | 0.0 | 1.0 | 0.00 | 0.02 | 0.00 | 82 | 1018.4 |
| 20260831230012 | 83 | 341 | 0.0 | 2.0 | 0.00 | 0.02 | 0.00 | 81 | 1018.5 |
| 20260831224509 | 83 | 329 | 0.0 | 3.0 | 0.00 | 0.02 | 0.00 | 81 | 1018.5 |
| 20260831223003 | 83 | 352 | 1.0 | 3.0 | 0.00 | 0.02 | 0.00 | 80 | 1018.6 |
| 20260831221504 | 83 | 333 | 1.0 | 3.0 | 0.00 | 0.02 | 0.00 | 80 | 1018.5 |
| 20260831220003 | 84 | 319 | 1.0 | 3.0 | 0.00 | 0.02 | 0.00 | 79 | 1018.7 |
| 20260831214503 | 85 | 342 | 1.0 | 3.0 | 0.00 | 0.02 | 0.00 | 77 | 1018.7 |
| 20260831213017 | 85 | 352 | 1.0 | 4.0 | 0.00 | 0.02 | 0.00 | 75 | 1018.5 |
| 20260831211504 | 85 | 337 | 1.0 | 3.0 | 0.00 | 0.02 | 0.00 | 74 | 1018.4 |
| 20260831210004 | 85 | 348 | 1.0 | 4.0 | 0.00 | 0.02 | 0.00 | 72 | 1018.5 |
| 20260831204508 | 87 | 318 | 3.0 | 5.0 | 0.00 | 0.02 | 0.00 | 69 | 1018.4 |
| 20260831203003 | 87 | 311 | 3.0 | 7.0 | 0.00 | 0.02 | 0.00 | 68 | 1018.4 |
| 20260831201503 | 88 | 296 | 1.0 | 5.0 | 0.00 | 0.02 | 0.00 | 66 | 1018.5 |
| 20260831200003 | 88 | 352 | 1.0 | 3.0 | 0.00 | 0.02 | 0.00 | 66 | 1018.5 |
| 20260831194505 | 87 | 322 | 0.0 | 6.0 | 0.00 | 0.02 | 0.00 | 69 | 1018.6 |
| 20260831193014 | 87 | 286 | 1.0 | 6.0 | 0.00 | 0.02 | 0.00 | 67 | 1018.7 |
| 20260831191514 | 87 | 325 | 0.0 | 3.0 | 0.00 | 0.02 | 0.00 | 69 | 1018.9 |
| 20260831190006 | 86 | 281 | 0.0 | 4.0 | 0.00 | 0.02 | 0.00 | 69 | 1019.1 |
| 20260831184504 | 86 | 315 | 2.0 | 6.0 | 0.00 | 0.02 | 0.00 | 70 | 1019.0 |
| 20260831183006 | 86 | 314 | 2.0 | 5.0 | 0.00 | 0.02 | 0.00 | 71 | 1019.0 |
| 20260831181514 | 86 | 331 | 0.0 | 2.0 | 0.00 | 0.02 | 0.00 | 71 | 1019.1 |
| 20260831180015 | 85 | 145 | 0.0 | 5.0 | 0.00 | 0.02 | 0.00 | 73 | 1019.3 |
| 20260831174511 | 85 | 304 | 2.0 | 5.0 | 0.00 | 0.02 | 0.00 | 73 | 1019.4 |
| 20260831173006 | 84 | 5 | 1.0 | 6.0 | 0.00 | 0.02 | 0.00 | 73 | 1019.5 |
| 20260831171512 | 84 | 303 | 2.0 | 4.0 | 0.00 | 0.02 | 0.00 | 73 | 1019.7 |
| 20260831170003 | 83 | 360 | 1.0 | 6.0 | 0.00 | 0.02 | 0.00 | 75 | 1019.8 |
| 20260831164536 | 83 | 10 | 2.0 | 8.0 | 0.00 | 0.02 | 0.00 | 75 | 1019.9 |
| 20260831163004 | 83 | 281 | 1.0 | 5.0 | 0.00 | 0.02 | 0.00 | 75 | 1020.0 |
| 20260831161508 | 82 | 325 | 3.0 | 7.0 | 0.00 | 0.02 | 0.00 | 75 | 1020.0 |
| 20260831160015 | 81 | 316 | 2.0 | 7.0 | 0.00 | 0.02 | 0.00 | 77 | 1020.0 |
| 20260831154520 | 81 | 61 | 0.0 | 6.0 | 0.00 | 0.02 | 0.00 | 79 | 1019.9 |
| 20260831153010 | 80 | 35 | 2.0 | 9.0 | 0.00 | 0.02 | 0.00 | 80 | 1019.9 |
| 20260831151505 | 80 | 316 | 1.0 | 10.0 | 0.00 | 0.02 | 0.00 | 80 | 1019.9 |
| 20260831150012 | 80 | 286 | 2.0 | 9.0 | 0.00 | 0.02 | 0.00 | 81 | 1020.0 |
| 20260831144518 | 79 | 46 | 0.0 | 6.0 | 0.00 | 0.02 | 0.00 | 81 | 1020.0 |
| 20260831143021 | 79 | 342 | 2.0 | 5.0 | 0.00 | 0.02 | 0.00 | 83 | 1019.9 |
| 20260831141514 | 78 | 32 | 2.0 | 8.0 | 0.00 | 0.02 | 0.00 | 82 | 1019.8 |
| 20260831140013 | 78 | 344 | 2.0 | 6.0 | 0.00 | 0.02 | 0.00 | 84 | 1019.7 |
| 20260831134502 | 77 | 340 | 3.0 | 10.0 | 0.00 | 0.02 | 0.00 | 84 | 1019.8 |
| 20260831133008 | 76 | 314 | 1.0 | 6.0 | 0.00 | 0.02 | 0.00 | 89 | 1019.9 |
| 20260831131504 | 75 | 352 | 3.0 | 6.0 | 0.00 | 0.02 | 0.00 | 90 | 1019.9 |
| 20260831130003 | 74 | 321 | 2.0 | 6.0 | 0.00 | 0.02 | 0.00 | 92 | 1020.0 |
| 20260831124514 | 73 | 343 | 1.0 | 5.0 | 0.00 | 0.02 | 0.00 | 93 | 1020.0 |
| 20260831123001 | 72 | 342 | 2.0 | 6.0 | 0.00 | 0.02 | 0.00 | 95 | 1020.0 |
| 20260831121503 | 72 | 348 | 0.0 | 3.0 | 0.00 | 0.02 | 0.00 | 95 | 1019.9 |
| 20260831120009 | 72 | 30 | 2.0 | 7.0 | 0.00 | 0.02 | 0.00 | 95 | 1019.9 |